Flag for U.S.A. Weather past 2 weeks in Stockton, California, U.S.A.

Now
61 °F

Clear.


Feels Like: 61 °F
Forecast: 53 / 80 °F
Wind: 6 mph from Northwest

Location: Stockton Metropolitan Airport

Current Time: Sep 4, 2015 at 1:08:15 AM

Latest Report: Sep 3, 2015 at 11:55 PM


Visibility: 10 mi

Pressure: 29.80 "Hg

Humidity: 62%

Dew point: 48 °F

Location of StocktonLocation

Historic Weather in Stockton — Graph

°F

Stockton temperature yesterday

Maximum temperature yesterday: 83 °F (at 2:55 PM)
Minimum temperature yesterday: 61 °F (at 11:55 PM)
Average temperature yesterday: 70 °F

Past Weeks' High & Low Weather Summary

 TemperatureHumidityPressure
High103 °F (Aug 27, 3:55 PM)90% (Aug 20, 6:55 AM)30.02 "Hg (Aug 20, 6:55 AM)
Low57 °F (Aug 22, 5:55 AM)14% (Aug 27, 2:55 PM)29.77 "Hg (Aug 20, 5:55 PM)
Average75 °F51%29.89 "Hg
* Reported Aug 19 11:55 PM — Sep 3 11:55 PM, Stockton, Weather by CustomWeather, © 2015

Note: Actual official high and low records may vary slightly from our data, if they occured in-between our weather recording intervals... More about our weather records

Advertising

Stockton weather history for previous 24 hours

 ConditionsComfort  
Time TempWeatherWind HumidityBarometerVisibility
11:55 PM
Thu, Sep 3
61 °FClear.6 mph62%29.80 "Hg10 mi
10:55 PM62 °FClear.12 mph62%29.80 "Hg10 mi
9:55 PM64 °FClear.10 mph54%29.80 "Hg10 mi
8:55 PM66 °FClear.10 mph49%29.80 "Hg10 mi
7:55 PM69 °FSunny.14 mph42%29.78 "Hg10 mi
6:55 PM74 °FSunny.15 mph36%29.78 "Hg10 mi
5:55 PM79 °FSunny.15 mph22%29.78 "Hg10 mi
4:55 PM82 °FSunny.13 mph21%29.79 "Hg10 mi
3:55 PM82 °FSunny.17 mph25%29.80 "Hg10 mi
2:55 PM83 °FSunny.16 mph28%29.83 "Hg10 mi
1:55 PM81 °FSunny.12 mph29%29.85 "Hg10 mi
12:55 PM79 °FSunny.17 mph32%29.87 "Hg10 mi
11:55 AM77 °FSunny.16 mph37%29.89 "Hg10 mi
10:55 AM74 °FSunny.8 mph45%29.90 "Hg10 mi
9:55 AM72 °FSunny.12 mph49%29.90 "Hg10 mi
8:55 AM69 °FSunny.12 mph59%29.90 "Hg10 mi
7:55 AM65 °FSunny.16 mph70%29.90 "Hg10 mi
6:55 AM62 °FClear.13 mph75%29.88 "Hg10 mi
5:55 AM62 °FClear.12 mph73%29.86 "Hg10 mi
4:55 AM63 °FClear.9 mph68%29.86 "Hg10 mi
3:55 AM63 °FClear.9 mph65%29.87 "Hg10 mi
2:55 AM63 °FClear.7 mph68%29.86 "Hg10 mi
1:55 AM63 °FClear.8 mph70%29.86 "Hg10 mi
Weather by CustomWeather, © 2015

See weather overviewHow to use our weather pages